Flag for Germany Weather past 2 weeks in Elmshorn, Schleswig-Holstein, Germany

Now
45 °F

Clear.


Feels Like: 42 °F
Forecast: 44 / 61 °F
Wind: 5 mph from Northwest

Location: Hamburg-Fuhlsbuettel

Current Time: Apr 21, 2015 at 5:56:46 AM

Latest Report: Apr 21, 2015 at 5:20 AM


Visibility: 10 mi

Pressure: 30.33 "Hg

Humidity: 87%

Dew point: 41 °F

Location of ElmshornLocation

Historic Weather in Elmshorn — Graph

°F

Elmshorn temperature yesterday

Maximum temperature yesterday: 64 °F (at 2:20 PM)
Minimum temperature yesterday: 34 °F (at 3:50 AM)
Average temperature yesterday: 51 °F

Past Weeks' High & Low Weather Summary

 TemperatureHumidityPressure
High70 °F (Apr 15, 3:20 PM)100% (Apr 7, 7:20 AM)30.57 "Hg (Apr 7, 7:20 AM)
Low30 °F (Apr 7, 3:20 AM)32% (Apr 20, 3:20 PM)29.83 "Hg (Apr 15, 3:50 PM)
Average48 °F71%30.22 "Hg
* Reported Apr 6 4:20 AM — Apr 21 4:20 AM, Elmshorn, Weather by CustomWeather, © 2015

Note: Actual official high and low records may vary slightly from our data, if they occured in-between our weather recording intervals... More about our weather records

Advertising

Elmshorn weather history for previous 24 hours

 ConditionsComfort  
Time TempWeatherWind HumidityBarometerVisibility
4:20 AM
Tue, Apr 21
39 °FClear.1 mph93%30.33 "Hg10 mi
3:50 AM39 °FClear.2 mph93%30.33 "Hg10 mi
3:20 AM41 °FClear.1 mph87%30.36 "Hg10 mi
2:50 AM41 °FClear.1 mph87%30.33 "Hg10 mi
2:20 AM41 °FClear.2 mph87%30.36 "Hg10 mi
1:50 AM41 °FClear.3 mph81%30.36 "Hg10 mi
1:20 AM41 °FClear.2 mph87%30.33 "Hg10 mi
12:50 AM43 °FClear.1 mph81%30.33 "Hg10 mi
12:20 AM45 °FClear.1 mph76%30.33 "Hg10 mi
11:50 PM
Mon, Apr 20
45 °FClear.1 mph76%30.36 "Hg10 mi
11:20 PM45 °FClear.3 mph71%30.36 "Hg10 mi
10:50 PM45 °FClear.3 mph71%30.36 "Hg10 mi
10:20 PM48 °FClear.2 mph71%30.36 "Hg10 mi
9:50 PM50 °FClear.2 mph67%30.33 "Hg10 mi
9:20 PM50 °FSunny.2 mph62%30.33 "Hg10 mi
8:50 PM54 °FSunny.2 mph54%30.33 "Hg10 mi
8:20 PM55 °FSunny.5 mph47%30.33 "Hg10 mi
7:50 PM61 °FPassing clouds.7 mph36%30.33 "HgN/A
7:20 PM63 °FSunny.9 mph32%30.33 "Hg10 mi
6:50 PM63 °FPassing clouds.9 mph34%30.33 "HgN/A
6:20 PM63 °FPassing clouds.9 mph37%30.33 "HgN/A
5:50 PM63 °FPassing clouds.10 mph34%30.33 "HgN/A
5:20 PM64 °FPassing clouds.8 mph34%30.33 "HgN/A
4:50 PM64 °FPassing clouds.9 mph34%30.33 "HgN/A
4:20 PM64 °FPassing clouds.8 mph34%30.33 "HgN/A
3:50 PM64 °FPassing clouds.9 mph34%30.33 "HgN/A
3:20 PM64 °FPassing clouds.9 mph32%30.33 "HgN/A
2:50 PM64 °FPassing clouds.9 mph37%30.33 "HgN/A
2:20 PM64 °FPassing clouds.9 mph34%30.33 "HgN/A
1:50 PM63 °FPassing clouds.10 mph37%30.33 "HgN/A
1:20 PM63 °FPassing clouds.10 mph37%30.33 "HgN/A
12:50 PM61 °FPassing clouds.13 mph36%30.33 "HgN/A
12:20 PM61 °FPassing clouds.10 mph39%30.33 "HgN/A
11:50 AM59 °FPassing clouds.12 mph45%30.33 "HgN/A
11:20 AM59 °FPassing clouds.10 mph51%30.33 "HgN/A
10:50 AM57 °FSunny.13 mph51%30.33 "Hg10 mi
10:20 AM55 °FPassing clouds.12 mph51%30.30 "HgN/A
9:50 AM54 °FPassing clouds.9 mph58%30.30 "HgN/A
9:20 AM52 °FSunny.8 mph67%30.30 "Hg10 mi
8:50 AM48 °FPassing clouds.6 mph76%30.30 "HgN/A
8:20 AM46 °FSunny.8 mph82%30.30 "Hg10 mi
7:50 AM43 °FPassing clouds.6 mph87%30.30 "HgN/A
7:20 AM41 °FSunny.5 mph93%30.30 "Hg10 mi
6:50 AM36 °FClear.6 mph100%30.30 "Hg10 mi
6:20 AM36 °FClear.2 mph93%30.27 "Hg10 mi
5:50 AM34 °FFog.2 mph93%30.27 "HgN/A
5:20 AM36 °FFog.2 mph93%30.30 "HgN/A
Weather by CustomWeather, © 2015

See weather overviewHow to use our weather pages